Simultaneous Nadir Overpasses (SNOs) Predictions

Prediction of SNOs between METOP-A and NOAA-19 Satellite Orbit:

Table of predicted SNOs for the next 14.0 days since TLE Epoch: 7/20/2015
Index Date (METOP-A) Time (METOP-A) Lat,Lon (METOP-A) SZA (METOP-A ) Date (NOAA-19) Time (NOAA-19) Lat,Lon (NOAA-19) SZA (NOAA-19 ) Distance(km) Time Diff (sec)
1 07/28/2015 11:02:55 -75.38,-167.87 123.67 07/28/2015 11:01:42 -75.40,-168.96 123.61 30.44 73
2 07/28/2015 11:53:38 75.21, -1.04 56.19 07/28/2015 11:52:37 75.18, -1.02 56.16 3.37 61
3 07/28/2015 12:44:21 -75.17, 166.16 123.85 07/28/2015 12:43:40 -75.19, 166.20 123.83 2.36 41
4 07/28/2015 13:35:01 75.14, -26.57 56.14 07/28/2015 13:34:39 75.15, -26.44 56.15 3.91 22
5 07/28/2015 14:25:43 -75.15, 140.77 123.85 07/28/2015 14:25:42 -75.16, 140.77 123.84 1.34 1
6
